Regional Weather Roundup
Issued by NWS Cleveland, OH

Home | Current Version | Previous Version | Text Only | Print | Product List | Glossary Off
Versions: 1 2 3 4 5 6 7 8 9 10 11 12 13 14 15 16 17 18 19 20 21 22 23 24 25 26 27 28 29 30 31 32 33 34 35 36 37 38 39 40 41 42 43 44 45 46 47 48 49 50

000
ASUS41 KCLE 282000
RWRCLE
OHIO REGIONAL WEATHER ROUNDUP
NATIONAL WEATHER SERVICE WILMINGTON, OH
400 PM EDT THU APR 28 2016

NOTE: "FAIR" INDICATES FEW OR NO CLOUDS BELOW 12,000 FEET WITH NO
SIGNIFICANT WEATHER AND/OR OBSTRUCTIONS TO VISIBILITY.

OHZ001>008-015>018-024>027-034-035-043-044-282100-
   NORTHWEST OHIO

CITY           SKY/WX    TMP DP  RH WIND       PRES   REMARKS
DEFIANCE       CLOUDY    52  42  69 NE13      29.93R
FINDLAY        CLOUDY    51  43  74 NE12      29.89F
TOLEDO EXPRESS CLOUDY    48  37  65 NE13      29.94R
TOLEDO EXEC    CLOUDY    48  37  65 E12G21    29.95R
LIMA           CLOUDY    51  48  89 NE10      29.89S
$$

OHZ009>014-019>023-028>033-038-089-282100-
   NORTHEAST OHIO

CITY           SKY/WX    TMP DP  RH WIND       PRES   REMARKS
CLE-HOPKINS    LGT RAIN  49  45  86 E7        29.94S
CLE-LAKEFRONT  LGT RAIN  48  45  89 NE10      29.91F
CUY CO. ARPT   LGT RAIN  50  46  87 E6        29.93R
LORAIN-ELYRIA  LGT RAIN  47  44  90 E5        29.92S FOG
ASHTABULA      LGT RAIN  49  43  80 E12       29.93F
AKRON-CANTON   CLOUDY    48  44  86 NE9       29.90F
WOOSTER        NOT AVBL
MANSFIELD      CLOUDY    50  47  89 NE8       29.89F
YOUNGSTOWN     LGT RAIN  47  44  90 E8        29.91F
$$

OHZ042-051>053-060>062-070>072-077>081-282100-
  SOUTHWEST OHIO

CITY           SKY/WX    TMP DP  RH WIND       PRES   REMARKS
CINC-COVINGTON FAIR      77  60  55 W10       29.81F
CINC-LUNKEN    FAIR      77  63  61 SW12      29.80F
HAMILTON       FAIR      76  61  59 W8        29.81F
DAYTON         PTSUNNY   66  57  72 CALM      29.85F
WRIGHT-PAT AFB NOT AVBL
DAYTON GENERAL FAIR      71  60  68 SW6       29.82F
WILMINGTON     PTSUNNY   71  62  73 NW14      29.83S
$$

OHZ036-037-039>041-045>050-054>059-063>069-073>076-082>088-282100-
  CENTRAL AND SOUTHEAST OHIO

CITY           SKY/WX    TMP DP  RH WIND       PRES   REMARKS
COLUMBUS       CLOUDY    63  55  75 NW6       29.84F
OSU AIRPORT    LGT RAIN  61  52  72 N6        29.85F
BOLTON FIELD   NOT AVBL
RICKENBACK AFB NOT AVBL
NEWARK         CLOUDY    65  54  67 CALM      29.84F
MARION         CLOUDY    52  48  86 NE9       29.89F FOG
LANCASTER      CLOUDY    67  60  78 N12       29.84F
ZANESVILLE     CLOUDY    67  54  63 N7        29.85F
NEW PHILLY     CLOUDY    53  48  83 N3        29.89S
$$




USA.gov is the U.S. government's official web portal to all federal, state and local government web resources and services.